Harbor Springs, MI

4:43 PM EDT on June 26, 2017 (GMT -0400)
Harbor Springs

Weather History for KMGN - December, 2013

Change the Weather History Date:

Monday, December 16, 2013

  Actual Average (KPLN) Record (KPLN)
Temperature  
Mean Temperature 3 °F -  
Max Temperature 15 °F 31 °F 57 °F (1984)
Min Temperature -9 °F 16 °F -20 °F (2013)
Degree Days  
Heating Degree Days 62    
Moisture  
Dew Point -1 °F    
Average Humidity 80    
Maximum Humidity 89    
Minimum Humidity 65    
Precipitation  
Precipitation 0.00 in - - ()
Sea Level Pressure  
Sea Level Pressure 30.03 in    
Wind  
Wind Speed 4 mph (ENE)    
Max Wind Speed 10 mph    
Max Gust Speed -    
Visibility 8 miles    
Events Snow    
Averages and records for this station are not official NWS values.
T = Trace of Precipitation, MM = Missing Value Source: NWS Daily Summary

Daily Weather History Graph

Daily Weather History Graph

Search for Another Location

Airport or City:

Trip Planner

Search our weather history database for the weather conditions in past years. The results will help you decide how hot, cold, wet, or windy it might be!

Date:

Astronomy

Dec. 16, 2013 Rise Set
Actual Time 8:13 AM EST 4:57 PM EST
Civil Twilight 7:39 AM EST 5:31 PM EST
Nautical Twilight 7:01 AM EST 6:09 PM EST
Astronomical Twilight 6:25 AM EST 6:45 PM EST
Moon 4:49 PM EST (12/16) 7:18 AM EST (12/16)
Length of Visible Light 9h 52m
Length of Day
8h 43m
Full, 100% of the Moon is Illuminated
Dec 16
Full
Dec 17
Full
Dec 25
Last Quarter
Jan 1
New
Jan 7
First Quarter

Hourly Weather History & Observations

Time (EST) Temp. Windchill Dew Point Humidity Pressure Visibility Wind Dir Wind Speed Gust Speed Precip Events Conditions
12:15 AM 8.6 °F 2.0 °F 5.7 °F 88% 29.97 in 10.0 mi North 3.5 mph - N/A   Mostly Cloudy
12:34 AM 8.1 °F - 5.2 °F 88% 29.97 in 4.0 mi Calm Calm - N/A Snow Light Snow
12:55 AM 4.5 °F - 1.8 °F 89% 29.98 in 1.8 mi Calm Calm - N/A Snow Light Snow
1:15 AM 2.8 °F - -0.4 °F 86% 29.99 in 10.0 mi Calm Calm - N/A Snow Light Snow
1:34 AM 1.8 °F - -1.5 °F 86% 29.99 in 10.0 mi Calm Calm - N/A   Clear
1:55 AM 0.7 °F - -2.7 °F 86% 30.00 in 10.0 mi Calm Calm - N/A   Clear
2:15 AM 0.5 °F - -3.1 °F 85% 30.01 in 10.0 mi Calm Calm - N/A   Clear
2:34 AM -1.5 °F -9.5 °F -5.1 °F 85% 30.01 in 10.0 mi North 3.5 mph - N/A   Clear
2:55 AM -4.2 °F -12.6 °F -8.1 °F 83% 30.03 in 10.0 mi NE 3.5 mph - N/A   Clear
3:15 AM -3.5 °F - -6.9 °F 85% 30.04 in 10.0 mi Calm Calm - N/A   Clear
3:34 AM -3.6 °F -12.0 °F -7.6 °F 83% 30.04 in 10.0 mi NNE 3.5 mph - N/A   Clear
3:55 AM -4.0 °F - -7.8 °F 84% 30.05 in 10.0 mi Calm Calm - N/A   Clear
4:15 AM -3.6 °F -12.0 °F -7.4 °F 84% 30.04 in 10.0 mi North 3.5 mph - N/A   Clear
4:34 AM -4.9 °F -13.4 °F -8.9 °F 83% 30.05 in 10.0 mi North 3.5 mph - N/A   Clear
4:55 AM -5.8 °F -14.5 °F -9.9 °F 82% 30.04 in 10.0 mi North 3.5 mph - N/A   Clear
5:15 AM -5.8 °F -14.5 °F -9.9 °F 82% 30.05 in 10.0 mi North 3.5 mph - N/A   Clear
5:34 AM -6.7 °F -15.5 °F -11.2 °F 81% 30.06 in 10.0 mi North 3.5 mph - N/A   Clear
5:55 AM -6.7 °F -17.7 °F -11.2 °F 81% 30.06 in 10.0 mi North 4.6 mph - N/A   Clear
6:15 AM -7.8 °F -20.8 °F -12.1 °F 81% 30.06 in 10.0 mi North 5.8 mph - N/A   Clear
6:34 AM -6.7 °F -17.7 °F -11.2 °F 81% 30.07 in 10.0 mi North 4.6 mph - N/A   Clear
6:55 AM -9.0 °F -20.4 °F -13.7 °F 80% 30.07 in 10.0 mi East 4.6 mph - N/A   Clear
7:14 AM -9.2 °F -22.5 °F -13.7 °F 81% 30.07 in 10.0 mi NE 5.8 mph - N/A   Clear
7:35 AM -9.9 °F - -14.6 °F 80% 30.08 in 10.0 mi Calm Calm - N/A   Clear
7:55 AM -9.4 °F - -13.9 °F 81% 30.09 in 10.0 mi Calm Calm - N/A   Clear
8:14 AM -9.8 °F -21.3 °F -14.6 °F 79% 30.10 in 10.0 mi NNE 4.6 mph - N/A   Clear
8:35 AM -9.4 °F -18.6 °F -14.1 °F 80% 30.10 in 10.0 mi NNE 3.5 mph - N/A   Clear
8:55 AM -9.0 °F -20.4 °F -13.7 °F 80% 30.11 in 4.0 mi NE 4.6 mph - N/A   Haze
9:14 AM -9.2 °F -22.5 °F -13.9 °F 80% 30.10 in 5.0 mi ENE 5.8 mph - N/A   Haze
9:35 AM -6.7 °F -15.5 °F -11.2 °F 81% 30.12 in 7.0 mi NE 3.5 mph - N/A   Clear
9:55 AM -3.3 °F -11.6 °F -7.1 °F 84% 30.12 in 10.0 mi NE 3.5 mph - N/A   Clear
10:14 AM -1.7 °F -11.8 °F -5.4 °F 84% 30.12 in 7.0 mi ENE 4.6 mph - N/A   Clear
10:35 AM 2.1 °F -7.4 °F -1.5 °F 85% 30.12 in 7.0 mi ENE 4.6 mph - N/A   Clear
10:55 AM 2.7 °F -9.7 °F -0.8 °F 86% 30.12 in 10.0 mi ENE 6.9 mph - N/A   Clear
11:14 AM 1.9 °F -12.9 °F -1.7 °F 85% 30.11 in 10.0 mi ENE 9.2 mph - N/A   Clear
11:35 AM 3.0 °F -11.5 °F -0.6 °F 85% 30.11 in 10.0 mi ENE 9.2 mph - N/A   Clear
11:55 AM 5.7 °F -7.2 °F 2.5 °F 86% 30.10 in 10.0 mi East 8.1 mph - N/A   Clear
12:14 PM 8.1 °F -4.3 °F 4.8 °F 87% 30.09 in 1.5 mi East 8.1 mph - N/A Snow Light Snow
12:35 PM 8.4 °F -2.8 °F 4.3 °F 83% 30.09 in 10.0 mi East 6.9 mph - N/A   Clear
12:55 PM 10.0 °F 0.4 °F 4.5 °F 78% 30.09 in 10.0 mi East 5.8 mph - N/A   Clear
1:14 PM 10.0 °F 1.8 °F 4.1 °F 77% 30.07 in 10.0 mi East 4.6 mph - N/A   Clear
1:35 PM 11.1 °F 3.1 °F 4.1 °F 73% 30.07 in 10.0 mi ENE 4.6 mph - N/A   Clear
1:55 PM 11.1 °F 0.4 °F 3.6 °F 72% 30.06 in 10.0 mi ENE 6.9 mph - N/A   Clear
2:14 PM 11.3 °F 1.9 °F 3.0 °F 69% 30.05 in 10.0 mi East 5.8 mph - N/A   Clear
2:35 PM - - - N/A% - - North - - N/A   Unknown
2:55 PM 13.5 °F 4.4 °F 4.5 °F 67% 30.04 in 10.0 mi East 5.8 mph - N/A   Unknown
3:14 PM 12.6 °F 2.2 °F 3.0 °F 66% 30.04 in 10.0 mi East 6.9 mph - N/A   Clear
3:35 PM 11.1 °F -1.6 °F 1.8 °F 66% 30.05 in 10.0 mi ENE 9.2 mph - N/A   Clear
3:54 PM 13.1 °F 2.8 °F 3.4 °F 65% 30.05 in 10.0 mi East 6.9 mph - N/A   Clear
4:15 PM 13.5 °F 3.3 °F 4.3 °F 67% 30.04 in 10.0 mi East 6.9 mph - N/A   Scattered Clouds
4:35 PM 11.3 °F 0.7 °F 3.4 °F 70% 30.04 in 10.0 mi East 6.9 mph - N/A   Mostly Cloudy
4:54 PM 10.0 °F -0.9 °F 2.8 °F 73% 30.04 in 10.0 mi East 6.9 mph - N/A   Scattered Clouds
5:15 PM 10.9 °F 1.4 °F 3.9 °F 73% 30.04 in 10.0 mi ENE 5.8 mph - N/A   Mostly Cloudy
5:35 PM 10.9 °F 0.2 °F 3.7 °F 73% 30.04 in 10.0 mi ENE 6.9 mph - N/A   Overcast
5:54 PM 10.9 °F -1.8 °F 3.7 °F 73% 30.02 in 10.0 mi ENE 9.2 mph - N/A   Mostly Cloudy
6:15 PM 10.9 °F 0.2 °F 4.1 °F 74% 30.02 in 10.0 mi ENE 6.9 mph - N/A   Overcast
6:35 PM 10.9 °F -0.8 °F 4.8 °F 76% 30.01 in 10.0 mi ENE 8.1 mph - N/A   Overcast
6:54 PM 10.9 °F -2.6 °F 5.2 °F 78% 29.99 in 10.0 mi East 10.4 mph - N/A   Overcast
7:15 PM 11.1 °F -1.6 °F 5.5 °F 78% 29.99 in 10.0 mi ENE 9.2 mph - N/A   Overcast
7:35 PM 11.5 °F -1.1 °F 5.5 °F 77% 29.99 in 10.0 mi ENE 9.2 mph - N/A   Overcast
7:54 PM 11.7 °F 0.0 °F 5.7 °F 77% 29.98 in 10.0 mi ENE 8.1 mph - N/A   Overcast
8:15 PM 12.4 °F 0.9 °F 6.4 °F 77% 29.96 in 10.0 mi ENE 8.1 mph - N/A   Overcast
8:35 PM 13.5 °F 3.3 °F 7.5 °F 77% 29.96 in 3.0 mi ENE 6.9 mph - N/A Snow Light Snow
8:54 PM 11.8 °F 1.3 °F 7.7 °F 83% 29.96 in 1.2 mi ENE 6.9 mph - N/A Snow Light Snow
9:15 PM 11.5 °F 2.1 °F 7.9 °F 85% 29.95 in 1.8 mi East 5.8 mph - N/A Snow Light Snow
9:35 PM 11.3 °F 5.1 °F 8.2 °F 87% 29.94 in 1.2 mi ENE 3.5 mph - N/A Snow Light Snow
9:54 PM 12.9 °F 6.9 °F 10.0 °F 88% 29.94 in 1.5 mi ENE 3.5 mph - N/A Snow Light Snow
10:15 PM 13.5 °F 5.8 °F 10.4 °F 88% 29.94 in 2.5 mi ESE 4.6 mph - N/A Snow Light Snow
10:35 PM 13.5 °F 7.5 °F 10.4 °F 88% 29.93 in 3.0 mi East 3.5 mph - N/A Snow Light Snow
10:54 PM 13.6 °F 7.7 °F 10.4 °F 87% 29.93 in 3.0 mi East 3.5 mph - N/A Snow Light Snow
11:15 PM 15.8 °F 8.6 °F 12.0 °F 85% 29.92 in 4.0 mi ENE 4.6 mph - N/A Snow Light Snow
11:35 PM 15.8 °F 8.6 °F 11.8 °F 84% 29.91 in 2.5 mi NE 4.6 mph - N/A Snow Light Snow
11:54 PM 15.8 °F 8.6 °F 12.0 °F 85% 29.91 in 2.5 mi ENE 4.6 mph - N/A Snow Light Snow